Location: Chamerau
(49.1969°N, 12.7525°E)
Time: 08:23:37
(UTC+00:00)

Cosmos 2285 Rocket - Pass Details

Date: 18 September 2020
Orbit: 970 x 1000 km, 74.0° (Epoch: 24 October)

Event Time Altitude Azimuth Distance (km) Brightness Sun altitude
Rises 19:32:43 0° 193° (SSW) 3,652 6.8 -22.2°
Reaches altitude 10° 19:35:14 10° 192° (SSW) 2,711 6.1 -22.6°
Maximum altitude 19:41:29 72° 109° (ESE) 1,027 3.9 -23.4°
Drops below altitude 10° 19:47:49 10° 27° (NNE) 2,746 6.4 -24.3°
Sets 19:50:23 0° 25° (NNE) 3,702 7.2 -24.6°
